Location: Peterborough
(44.3091°N, 78.3197°W)
Time: 20:15:09
(UTC-04:00)

Courier 1B Rocket - Pass Details

Date: 24 March 2023
Orbit: 920 x 1202 km, 28.2° (Epoch: 04 June)

Event Time Altitude Azimuth Distance (km) Brightness Sun altitude
Rises 22:04:51 0° 228° (SW) 3,772 8.3 -26.9°
Reaches altitude 10° 22:08:38 10° 209° (SSW) 2,763 7.3 -27.5°
Enters shadow 22:09:37 13° 201° (SSW) 2,563 7.1 -27.6°
